• In Czech Republic
  • List of Countries
  • For 7 days
  • Water Temperature
  • Satellite Maps
  • Weather Map
  • Weather Widgets
  • user-avatar
    Login

    Hourly Weather Coleraine

    Today, 27 April, Friday

    Time Temperature Precipitation Wind Pressure Humidity
    00:00 +3°C° 0 mm 2 mps 756 mmHg 88%
    01:00 +3°C° 0 mm 2 mps 756 mmHg 89%
    02:00 +3°C° 0 mm 2 mps 755 mmHg 89%
    03:00 +3°C° 0 mm 2 mps 755 mmHg 89%
    04:00 +3°C° 0 mm 2 mps 755 mmHg 88%
    05:00 +3°C° 0 mm 2 mps 755 mmHg 87%
    06:00 +4°C° 0 mm 1 mps 755 mmHg 85%
    07:00 +6°C° 0 mm 1 mps 755 mmHg 78%
    08:00 +8°C° 0 mm 1 mps 755 mmHg 71%
    09:00 +10°C° 0 mm 1 mps 755 mmHg 64%
    10:00 +9°C° 0.1 mm 2 mps 755 mmHg 65%
    11:00 +10°C° 0.1 mm 2 mps 755 mmHg 65%
    12:00 +10°C° 0.1 mm 2 mps 755 mmHg 65%
    13:00 +10°C° 0.2 mm 3 mps 755 mmHg 66%
    14:00 +10°C° 0.2 mm 3 mps 755 mmHg 67%
    15:00 +8°C° 0.2 mm 4 mps 755 mmHg 69%
    16:00 +8°C° 0.1 mm 4 mps 755 mmHg 70%
    17:00 +8°C° 0.1 mm 4 mps 755 mmHg 70%
    18:00 +7°C° 0.1 mm 4 mps 755 mmHg 71%
    19:00 +7°C° 0 mm 3 mps 756 mmHg 77%
    20:00 +4°C° 0 mm 3 mps 756 mmHg 83%
    21:00 +3°C° 0 mm 3 mps 756 mmHg 88%
    22:00 +2°C° 0 mm 3 mps 757 mmHg 89%
    23:00 +2°C° 0 mm 3 mps 757 mmHg 90%

    Tomorrow, 28 April, Saturday

    Time Temperature Precipitation Wind Pressure Humidity
    00:00 +3°C° 0 mm 2 mps 757 mmHg 91%
    01:00 +2°C° 0 mm 2 mps 757 mmHg 91%
    02:00 +2°C° 0 mm 2 mps 757 mmHg 91%
    03:00 +2°C° 0 mm 2 mps 757 mmHg 92%
    04:00 +2°C° 0 mm 2 mps 757 mmHg 91%
    05:00 +2°C° 0 mm 2 mps 757 mmHg 91%
    06:00 +2°C° 0 mm 2 mps 757 mmHg 90%
    07:00 +4°C° 0 mm 2 mps 757 mmHg 84%
    08:00 +6°C° 0 mm 2 mps 758 mmHg 78%
    09:00 +8°C° 0 mm 2 mps 758 mmHg 71%
    10:00 +9°C° 0.2 mm 2 mps 758 mmHg 70%
    11:00 +11°C° 0.2 mm 1 mps 758 mmHg 69%
    12:00 +11°C° 0.2 mm 1 mps 758 mmHg 68%
    13:00 +11°C° 0.3 mm 1 mps 758 mmHg 70%
    14:00 +10°C° 0.3 mm 2 mps 758 mmHg 71%
    15:00 +10°C° 0.3 mm 2 mps 758 mmHg 73%
    16:00 +10°C° 0.3 mm 2 mps 757 mmHg 75%
    17:00 +9°C° 0.3 mm 2 mps 757 mmHg 76%
    18:00 +9°C° 0.3 mm 2 mps 757 mmHg 78%
    19:00 +8°C° 0.1 mm 2 mps 758 mmHg 81%
    20:00 +6°C° 0.1 mm 2 mps 758 mmHg 83%
    21:00 +5°C° 0.1 mm 2 mps 758 mmHg 85%
    22:00 +5°C° 0 mm 2 mps 758 mmHg 86%
    23:00 +4°C° 0 mm 2 mps 759 mmHg 88%

    Day after tomorrow, 29 April, Sunday

    Time Temperature Precipitation Wind Pressure Humidity
    00:00 +4°C° 0 mm 2 mps 759 mmHg 89%
    01:00 +3°C° 0.1 mm 2 mps 759 mmHg 90%
    02:00 +3°C° 0.1 mm 2 mps 759 mmHg 91%
    03:00 +3°C° 0.1 mm 2 mps 759 mmHg 91%
    04:00 +2°C° 0.1 mm 3 mps 759 mmHg 92%
    05:00 +3°C° 0.1 mm 3 mps 759 mmHg 93%
    06:00 +3°C° 0.1 mm 3 mps 760 mmHg 93%
    07:00 +4°C° 0 mm 4 mps 760 mmHg 90%
    08:00 +6°C° 0 mm 4 mps 760 mmHg 87%
    09:00 +7°C° 0 mm 4 mps 761 mmHg 84%
    10:00 +7°C° 0.2 mm 4 mps 761 mmHg 81%
    11:00 +8°C° 0.2 mm 4 mps 761 mmHg 77%
    12:00 +10°C° 0.2 mm 4 mps 761 mmHg 74%
    13:00 +10°C° 0.2 mm 3 mps 761 mmHg 72%
    14:00 +10°C° 0.2 mm 3 mps 761 mmHg 71%
    15:00 +11°C° 0.2 mm 3 mps 761 mmHg 69%
    16:00 +10°C° 0.1 mm 3 mps 761 mmHg 70%
    17:00 +10°C° 0.1 mm 3 mps 761 mmHg 71%
    18:00 +9°C° 0.1 mm 3 mps 761 mmHg 73%
    19:00 +8°C° 0 mm 3 mps 762 mmHg 79%
    20:00 +5°C° 0 mm 3 mps 762 mmHg 86%
    21:00 +4°C° 0 mm 3 mps 763 mmHg 92%
    22:00 +3°C° 0 mm 3 mps 763 mmHg 92%
    23:00 +4°C° 0 mm 2 mps 763 mmHg 91%

    30 April, Monday

    Time Temperature Precipitation Wind Pressure Humidity
    00:00 +3°C° 0 mm 2 mps 763 mmHg 91%
    01:00 +3°C° 0 mm 2 mps 763 mmHg 91%
    02:00 +3°C° 0 mm 2 mps 763 mmHg 90%
    03:00 +3°C° 0 mm 1 mps 763 mmHg 90%
    04:00 +4°C° 0 mm 1 mps 763 mmHg 89%
    05:00 +4°C° 0 mm 1 mps 763 mmHg 89%
    06:00 +4°C° 0 mm 1 mps 763 mmHg 89%
    07:00 +6°C° 0 mm 1 mps 763 mmHg 81%
    08:00 +8°C° 0 mm 1 mps 763 mmHg 74%
    09:00 +10°C° 0 mm 1 mps 763 mmHg 67%
    10:00 +11°C° 0 mm 1 mps 763 mmHg 63%
    11:00 +11°C° 0 mm 1 mps 762 mmHg 59%
    12:00 +12°C° 0 mm 1 mps 762 mmHg 55%
    13:00 +12°C° 0 mm 2 mps 762 mmHg 55%
    14:00 +12°C° 0 mm 2 mps 761 mmHg 55%
    15:00 +12°C° 0 mm 2 mps 761 mmHg 54%
    16:00 +12°C° 0 mm 2 mps 761 mmHg 58%
    17:00 +10°C° 0 mm 2 mps 761 mmHg 62%
    18:00 +10°C° 0 mm 2 mps 760 mmHg 66%
    19:00 +8°C° 0 mm 2 mps 760 mmHg 72%
    20:00 +7°C° 0 mm 1 mps 760 mmHg 79%
    21:00 +5°C° 0 mm 1 mps 760 mmHg 85%
    22:00 +4°C° 0 mm 1 mps 759 mmHg 87%
    23:00 +4°C° 0 mm 1 mps 759 mmHg 88%

    1 May, Tuesday

    Time Temperature Precipitation Wind Pressure Humidity
    00:00 +3°C° 0 mm 2 mps 759 mmHg 90%
    01:00 +3°C° 0 mm 2 mps 758 mmHg 90%
    02:00 +3°C° 0 mm 2 mps 758 mmHg 91%
    03:00 +2°C° 0 mm 2 mps 758 mmHg 91%
    04:00 +2°C° 0 mm 3 mps 757 mmHg 90%
    05:00 +2°C° 0 mm 3 mps 757 mmHg 89%
    06:00 +2°C° 0 mm 3 mps 757 mmHg 88%
    07:00 +4°C° 0 mm 4 mps 756 mmHg 81%
    08:00 +6°C° 0 mm 5 mps 756 mmHg 75%
    09:00 +8°C° 0 mm 5 mps 756 mmHg 68%
    10:00 +9°C° 0 mm 5 mps 756 mmHg 65%
    11:00 +10°C° 0 mm 6 mps 755 mmHg 61%
    12:00 +11°C° 0 mm 6 mps 755 mmHg 58%
    13:00 +11°C° 0.1 mm 6 mps 755 mmHg 61%
    14:00 +11°C° 0.1 mm 6 mps 754 mmHg 64%
    15:00 +11°C° 0.1 mm 6 mps 754 mmHg 67%
    16:00 +9°C° 0.5 mm 5 mps 754 mmHg 75%
    17:00 +8°C° 0.5 mm 5 mps 754 mmHg 83%
    18:00 +7°C° 0.5 mm 5 mps 754 mmHg 91%
    19:00 +7°C° 0.5 mm 5 mps 754 mmHg 92%
    20:00 +7°C° 0.5 mm 6 mps 754 mmHg 93%
    21:00 +5°C° 0.5 mm 6 mps 755 mmHg 95%
    22:00 +5°C° 0.3 mm 6 mps 755 mmHg 93%
    23:00 +4°C° 0.3 mm 6 mps 756 mmHg 91%

    2 May, Wednesday

    Time Temperature Precipitation Wind Pressure Humidity
    00:00 +4°C° 0.3 mm 6 mps 756 mmHg 89%
    01:00 +3°C° 0 mm 6 mps 757 mmHg 88%
    02:00 +2°C° 0 mm 5 mps 757 mmHg 87%
    03:00 +1°C° 0 mm 5 mps 758 mmHg 87%
    04:00 +1°C° 0 mm 5 mps 758 mmHg 87%
    05:00 +3°C° 0 mm 4 mps 759 mmHg 87%
    06:00 +3°C° 0 mm 4 mps 759 mmHg 87%
    07:00 +5°C° 0 mm 5 mps 760 mmHg 81%
    08:00 +7°C° 0 mm 5 mps 761 mmHg 75%
    09:00 +8°C° 0 mm 6 mps 761 mmHg 69%
    10:00 +9°C° 0 mm 6 mps 762 mmHg 66%
    11:00 +10°C° 0 mm 5 mps 762 mmHg 63%
    12:00 +10°C° 0 mm 5 mps 762 mmHg 61%
    13:00 +10°C° 0 mm 5 mps 763 mmHg 62%
    14:00 +10°C° 0 mm 5 mps 763 mmHg 62%
    15:00 +11°C° 0 mm 4 mps 763 mmHg 63%
    16:00 +11°C° 0 mm 4 mps 763 mmHg 66%
    17:00 +10°C° 0 mm 3 mps 763 mmHg 69%
    18:00 +10°C° 0 mm 3 mps 763 mmHg 72%
    19:00 +9°C° 0 mm 2 mps 764 mmHg 75%
    20:00 +8°C° 0 mm 2 mps 764 mmHg 78%
    21:00 +7°C° 0 mm 2 mps 764 mmHg 82%
    22:00 +6°C° 0 mm 2 mps 764 mmHg 82%
    23:00 +5°C° 0 mm 3 mps 764 mmHg 83%
    Show more